Flag for Malaysia Weather past 2 weeks in Kuching, Malaysia

Now
77 °F

Partly cloudy.


Feels Like: 78 °F
Forecast: 76 / 91 °F
Wind: 2 mph from Northwest

Location: Kuching Airport

Current Time: Oct 2, 2014 at 10:41:46 PM

Latest Report: Oct 2, 2014 at 10:00 PM


Visibility: 4 mi

Pressure: 29.80 "Hg

Humidity: 89%

Dew point: 73 °F

Location of KuchingLocation

Historic Weather in Kuching — Graph

°F

Kuching temperature yesterday

Maximum temperature yesterday: 91 °F (at 1:00 PM)
Minimum temperature yesterday: 73 °F (at 3:00 AM)
Average temperature yesterday: 81 °F

Past Weeks' High & Low Weather Summary

 TemperatureHumidityPressure
High93 °F (Sep 18, 3:30 PM)100% (Sep 25, 12:30 AM)29.95 "Hg (Sep 25, 12:30 AM)
Low73 °F (Sep 27, 6:00 AM)52% (Sep 28, 12:00 PM)29.71 "Hg (Sep 19, 4:00 PM)
Average81 °F82%29.84 "Hg
* Reported Sep 17 9:00 PM — Oct 2 9:30 PM, Kuching, Weather by CustomWeather, © 2014

Note: Actual official high and low records may vary slightly from our data, if they occured in-between our weather recording intervals... More about our weather records

Advertising

Kuching weather history for previous 24 hours

 ConditionsComfort  
Time TempWeatherWind HumidityBarometerVisibility
9:30 PM
Oct 2
77 °FPartly cloudy.5 mph89%29.80 "Hg4 mi
9:00 PM79 °FPartly cloudy.3 mph84%29.80 "Hg4 mi
8:30 PM79 °FPartly cloudy.5 mph84%29.80 "Hg4 mi
8:00 PM79 °FPartly cloudy.3 mph84%29.80 "Hg4 mi
7:30 PM79 °FPartly cloudy.6 mph84%29.77 "Hg4 mi
7:00 PM79 °FPartly cloudy.3 mph84%29.77 "Hg4 mi
6:30 PM81 °FBroken clouds.5 mph79%29.77 "Hg4 mi
6:00 PM81 °FBroken clouds.6 mph79%29.77 "Hg4 mi
5:30 PM81 °FBroken clouds.2 mph84%29.74 "Hg4 mi
5:00 PM82 °FThunderstorms. Broken clouds.6 mph74%29.74 "Hg4 mi
4:30 PM84 °FThunderstorms. Partly sunny.10 mph66%29.74 "Hg4 mi
3:30 AM77 °FPartly cloudy.3 mph89%29.80 "Hg4 mi
3:00 AM75 °FPartly cloudy.2 mph94%29.83 "Hg4 mi
2:30 AM77 °FPartly cloudy.3 mph89%29.83 "Hg4 mi
2:00 AM77 °FPartly cloudy.3 mph89%29.83 "Hg4 mi
1:30 AM77 °FPartly cloudy.3 mph89%29.83 "Hg4 mi
1:00 AM77 °FPartly cloudy.1 mph89%29.83 "Hg4 mi
12:30 AM77 °FPartly cloudy.5 mph89%29.83 "Hg4 mi
12:00 AM77 °FPartly cloudy.5 mph89%29.86 "Hg5 mi
11:30 PM
Oct 1
77 °FPartly cloudy.2 mph89%29.86 "HgN/A
11:00 PM77 °FPartly cloudy.3 mph89%29.86 "HgN/A
10:30 PM79 °FPartly cloudy.2 mph84%29.86 "HgN/A
10:00 PM79 °FPartly cloudy.2 mph84%29.83 "HgN/A
Weather by CustomWeather, © 2014

See weather overviewHow to use our weather pages